Location: Im Fang
(46.6019°N, 7.2397°E)
Time: 08:52:04
(UTC+00:00)

STARLINK 1046 - Pass Details

Date: 08 December 2019
Orbit: 548 x 551 km, 53.0° (Epoch: 17 January)

Event Time Altitude Azimuth Distance (km) Brightness Sun altitude
Exits shadow 05:39:41 22° 294° (WNW) 1,257 4.8 -13.5°
Maximum altitude 05:42:19 70° 214° (SW) 599 3.7 -13.1°
Drops below altitude 10° 05:46:30 10° 131° (SE) 1,849 7.5 -12.4°
Sets 05:48:45 0° 129° (SE) 2,742 8.7 -12.0°
